TimeEST,TemperatureF,Dew PointF,Humidity,Sea Level PressureIn,VisibilityMPH,Wind Direction,Wind SpeedMPH,Gust SpeedMPH,PrecipitationIn,Events,Conditions,WindDirDegrees,DateUTC
12:53 AM,42.1,37.9,85,30.47,10.0,East,5.8,-,N/A,,Clear,100,2012-11-11 05:53:00
1:53 AM,41.0,37.0,86,30.48,10.0,ESE,6.9,-,N/A,,Clear,120,2012-11-11 06:53:00
2:53 AM,42.1,36.0,79,30.48,10.0,SE,5.8,-,N/A,,Clear,130,2012-11-11 07:53:00
3:53 AM,42.1,36.0,79,30.48,10.0,ESE,6.9,-,N/A,,Overcast,120,2012-11-11 08:53:00
4:53 AM,48.0,39.9,74,30.50,10.0,SSE,5.8,-,N/A,,Overcast,150,2012-11-11 09:53:00
5:53 AM,48.9,42.1,77,30.53,10.0,SE,4.6,-,N/A,,Overcast,140,2012-11-11 10:53:00
6:53 AM,50.0,42.1,74,30.53,10.0,SE,9.2,-,N/A,,Overcast,140,2012-11-11 11:53:00
7:53 AM,51.1,44.1,77,30.54,10.0,SE,10.4,-,N/A,,Overcast,140,2012-11-11 12:53:00
8:53 AM,53.1,45.0,74,30.53,10.0,SE,11.5,-,N/A,,Clear,140,2012-11-11 13:53:00
9:53 AM,55.0,46.0,72,30.54,10.0,SE,10.4,-,N/A,,Clear,140,2012-11-11 14:53:00
11:53 AM,57.0,50.0,77,30.51,10.0,SSE,10.4,-,N/A,,Clear,160,2012-11-11 16:53:00
12:53 PM,57.0,50.0,77,30.50,10.0,SSE,10.4,-,N/A,,Clear,150,2012-11-11 17:53:00
1:53 PM,55.0,50.0,83,30.49,10.0,SSE,10.4,-,N/A,,Overcast,150,2012-11-11 18:53:00
2:53 PM,55.0,51.1,86,30.49,10.0,South,10.4,-,N/A,,Overcast,170,2012-11-11 19:53:00
3:53 PM,55.0,52.0,89,30.50,10.0,South,10.4,-,N/A,,Overcast,180,2012-11-11 20:53:00
4:53 PM,53.1,51.1,93,30.51,10.0,South,6.9,-,N/A,,Clear,190,2012-11-11 21:53:00
5:53 PM,53.1,51.1,93,30.52,8.0,SSW,8.1,-,N/A,,Clear,200,2012-11-11 22:53:00
6:53 PM,53.1,52.0,96,30.52,7.0,SSW,6.9,-,N/A,,Clear,210,2012-11-11 23:53:00
7:53 PM,53.1,52.0,96,30.52,6.0,SSW,6.9,-,N/A,,Clear,200,2012-11-12 00:53:00
8:53 PM,53.1,52.0,96,30.52,6.0,SSW,6.9,-,N/A,,Clear,200,2012-11-12 01:53:00
9:53 PM,54.0,52.0,93,30.51,7.0,SSW,9.2,-,N/A,,Clear,200,2012-11-12 02:53:00
10:53 PM,54.0,52.0,93,30.51,8.0,South,6.9,-,N/A,,Clear,190,2012-11-12 03:53:00
11:53 PM,53.1,52.0,96,30.52,7.0,SSW,6.9,-,N/A,,Clear,200,2012-11-12 04:53:00